Weather History for Macomb, IL

Change the Weather History Date:

Monday, February 10, 2014

  Actual Average (KBRL) Record (KBRL)
Temperature  
Mean Temperature -5 °F 28 °F  
Max Temperature 5 °F 37 °F 70 °F (1932)
Min Temperature -15 °F 20 °F -18 °F (1899)
Degree Days  
Heating Degree Days 70 36  
Month to date heating degree days 374  
Since 1 July heating degree days 3775  
Cooling Degree Days 0 0  
Month to date cooling degree days 0  
Year to date cooling degree days 0  
Moisture  
Dew Point -11 °F    
Average Humidity 78    
Maximum Humidity 85    
Minimum Humidity 69    
Precipitation  
Precipitation 0.00 in 0.05 in 0.48 in (1953)
Month to date precipitation 0.48  
Year to date precipitation 1.72  
Sea Level Pressure  
Sea Level Pressure 30.48 in    
Wind  
Wind Speed 10 mph (NW)    
Max Wind Speed 13 mph    
Max Gust Speed -    
Visibility 10 miles    
Events      
T = Trace of Precipitation, MM = Missing Value Source: NWS Daily Summary

Daily Weather History Graph

Daily Weather History Graph

Search for Another Location

Airport:

Trip Planner

Search our weather history database for the weather conditions in past years. The results will help you decide how hot, cold, wet, or windy it might be!

Date:

Astronomy

Feb. 10, 2014 Rise Set
Actual Time 7:02 AM CST 5:31 PM CST
Civil Twilight 6:34 AM CST 6:00 PM CST
Nautical Twilight 6:02 AM CST 6:32 PM CST
Astronomical Twilight 5:30 AM CST 7:04 PM CST
Moon 2:00 PM CST (2/10) 3:56 AM CST (2/10)
Length of Visible Light 11h 25m
Length of Day
10h 29m
Waxing Gibbous, 85% of the Moon is Illuminated
Feb 10
Waxing Gibbous
Feb 14
Full
Feb 22
Last Quarter
Mar 1
New
Mar 8
First Quarter

Hourly Weather History & Observations

Time (CST) Temp. Windchill Dew Point Humidity Pressure Visibility Wind Dir Wind Speed Gust Speed Precip Events Conditions
12:15 AM -2.9 °F -20.8 °F -8.5 °F 77% 30.41 in 10.0 mi WNW 11.5 mph - N/A   Clear
12:35 AM -4.0 °F -22.1 °F -9.4 °F 78% 30.42 in 10.0 mi WNW 11.5 mph - N/A   Clear
12:55 AM -5.3 °F -22.8 °F -10.5 °F 78% 30.42 in 10.0 mi WNW 10.4 mph - N/A   Clear
1:15 AM -5.3 °F -24.6 °F -10.3 °F 79% 30.42 in 10.0 mi WNW 12.7 mph - N/A   Clear
1:35 AM -4.2 °F -23.2 °F -9.4 °F 78% 30.42 in 10.0 mi WNW 12.7 mph - N/A   Clear
1:55 AM -4.9 °F -23.2 °F -9.9 °F 79% 30.42 in 10.0 mi NW 11.5 mph - N/A   Clear
2:15 AM -5.8 °F -22.4 °F -10.5 °F 80% 30.43 in 10.0 mi WNW 9.2 mph - N/A   Clear
2:35 AM -7.4 °F -23.2 °F -12.1 °F 80% 30.43 in 10.0 mi WNW 8.1 mph - N/A   Clear
2:55 AM -8.5 °F -27.8 °F -13.0 °F 81% 30.43 in 10.0 mi WNW 11.5 mph - N/A   Clear
3:15 AM -8.1 °F -28.2 °F -12.5 °F 81% 30.44 in 10.0 mi WNW 12.7 mph - N/A   Clear
3:35 AM -8.5 °F -28.6 °F -13.0 °F 81% 30.44 in 10.0 mi WNW 12.7 mph - N/A   Clear
3:55 AM -8.5 °F -28.6 °F -13.0 °F 81% 30.43 in 10.0 mi NW 12.7 mph - N/A   Clear
4:15 AM -8.7 °F -28.0 °F -13.0 °F 81% 30.43 in 10.0 mi NW 11.5 mph - N/A   Clear
4:35 AM -10.5 °F -28.1 °F -15.0 °F 80% 30.45 in 10.0 mi WNW 9.2 mph - N/A   Clear
4:55 AM -11.9 °F -31.0 °F -15.9 °F 83% 30.46 in 10.0 mi West 10.4 mph - N/A   Clear
5:15 AM -12.3 °F -32.5 °F -16.1 °F 83% 30.46 in 10.0 mi WNW 11.5 mph - N/A   Clear
5:35 AM -13.0 °F -32.4 °F -16.8 °F 83% 30.46 in 10.0 mi WNW 10.4 mph - N/A   Clear
5:55 AM -12.1 °F -32.3 °F -15.9 °F 83% 30.45 in 10.0 mi NW 11.5 mph - N/A   Clear
6:15 AM -10.1 °F -28.8 °F -14.3 °F 82% 30.45 in 10.0 mi NW 10.4 mph - N/A   Clear
6:35 AM -13.5 °F -33.0 °F -17.3 °F 83% 30.45 in 10.0 mi NW 10.4 mph - N/A   Clear
6:55 AM -12.5 °F -32.7 °F -15.9 °F 85% 30.45 in 10.0 mi NW 11.5 mph - N/A   Clear
7:15 AM -13.9 °F -33.5 °F -17.9 °F 82% 30.46 in 10.0 mi NW 10.4 mph - N/A   Clear
7:35 AM -14.4 °F -33.0 °F -18.6 °F 82% 30.47 in 10.0 mi NW 9.2 mph - N/A   Clear
7:55 AM -11.0 °F -28.8 °F -14.8 °F 83% 30.48 in 10.0 mi NW 9.2 mph - N/A   Clear
8:15 AM -8.0 °F -27.1 °F -11.9 °F 83% 30.48 in 10.0 mi NW 11.5 mph - N/A   Clear
8:35 AM -7.8 °F -24.8 °F -11.7 °F 83% 30.49 in 10.0 mi NW 9.2 mph - N/A   Clear
8:55 AM -8.5 °F -24.5 °F -12.6 °F 82% 30.50 in 10.0 mi WNW 8.1 mph - N/A   Clear
9:15 AM -7.6 °F -25.7 °F -11.6 °F 83% 30.50 in 10.0 mi WNW 10.4 mph - N/A   Clear
9:35 AM -6.2 °F -21.7 °F -10.3 °F 82% 30.50 in 10.0 mi WNW 8.1 mph - N/A   Clear
9:55 AM -4.9 °F -21.3 °F -8.7 °F 84% 30.50 in 10.0 mi NW 9.2 mph - N/A   Clear
10:15 AM -3.6 °F -20.7 °F -7.8 °F 82% 30.51 in 10.0 mi NNW 10.4 mph - N/A   Clear
10:35 AM -3.5 °F -18.4 °F -8.1 °F 80% 30.52 in 10.0 mi NW 8.1 mph - N/A   Clear
10:55 AM -2.4 °F -15.8 °F -8.0 °F 77% 30.52 in 10.0 mi WNW 6.9 mph - N/A   Clear
11:15 AM -1.8 °F -15.2 °F -7.6 °F 76% 30.52 in 10.0 mi WNW 6.9 mph - N/A   Clear
11:25 AM -2.2 °F -16.8 °F -7.6 °F 78% 30.52 in 10.0 mi WNW 8.1 mph - N/A   Clear
11:35 AM -1.3 °F -14.5 °F -7.2 °F 76% 30.52 in 10.0 mi WNW 6.9 mph - N/A   Clear
11:55 AM -0.0 °F -11.6 °F -6.0 °F 76% 30.51 in 10.0 mi NNW 5.8 mph - N/A   Clear
12:15 PM 0.3 °F -13.8 °F -6.2 °F 74% 30.50 in 10.0 mi NNW 8.1 mph - N/A   Clear
12:35 PM 1.2 °F -12.7 °F -5.4 °F 74% 30.49 in 10.0 mi NNW 8.1 mph - N/A   Clear
12:55 PM 2.1 °F -11.6 °F -4.7 °F 73% 30.49 in 10.0 mi WNW 8.1 mph - N/A   Clear
1:15 PM 2.7 °F -10.9 °F -4.4 °F 73% 30.49 in 10.0 mi NW 8.1 mph - N/A   Clear
1:35 PM 3.2 °F -11.3 °F -4.4 °F 71% 30.48 in 10.0 mi NW 9.2 mph - N/A   Clear
1:55 PM 4.1 °F -9.2 °F -3.5 °F 71% 30.47 in 10.0 mi NNW 8.1 mph - N/A   Clear
2:15 PM 4.1 °F -6.7 °F -3.5 °F 71% 30.47 in 10.0 mi NW 5.8 mph - N/A   Clear
2:35 PM 4.6 °F -8.5 °F -2.9 °F 71% 30.47 in 10.0 mi NNW 8.1 mph - N/A   Clear
2:55 PM 4.8 °F -10.2 °F -3.1 °F 70% 30.47 in 10.0 mi NNW 10.4 mph - N/A   Clear
3:15 PM 5.0 °F -8.1 °F -3.3 °F 69% 30.47 in 10.0 mi NNW 8.1 mph - N/A   Clear
3:35 PM 4.8 °F -8.3 °F -3.1 °F 70% 30.47 in 10.0 mi NNW 8.1 mph - N/A   Clear
3:55 PM 4.1 °F -10.2 °F -3.6 °F 70% 30.47 in 10.0 mi NNW 9.2 mph - N/A   Clear
4:15 PM 3.4 °F -10.0 °F -3.8 °F 72% 30.48 in 10.0 mi NNW 8.1 mph - N/A   Clear
4:35 PM 2.7 °F -10.9 °F -4.5 °F 72% 30.48 in 10.0 mi NNW 8.1 mph - N/A   Clear
4:55 PM 1.9 °F -9.2 °F -5.8 °F 70% 30.48 in 10.0 mi NNW 5.8 mph - N/A   Clear
5:15 PM 2.1 °F -9.0 °F -5.8 °F 69% 30.49 in 10.0 mi NW 5.8 mph - N/A   Clear
5:35 PM -0.0 °F -13.0 °F -6.9 °F 73% 30.49 in 10.0 mi NW 6.9 mph - N/A   Clear
5:55 PM -2.4 °F -14.4 °F -9.6 °F 71% 30.50 in 10.0 mi NW 5.8 mph - N/A   Clear
6:15 PM -4.2 °F -18.0 °F -10.3 °F 75% 30.50 in 10.0 mi NW 6.9 mph - N/A   Clear
6:35 PM -4.4 °F -15.0 °F -11.0 °F 73% 30.50 in 10.0 mi NW 4.6 mph - N/A   Clear
6:55 PM -6.7 °F -19.5 °F -12.5 °F 76% 30.51 in 10.0 mi NW 5.8 mph - N/A   Clear
7:15 PM -6.5 °F -19.3 °F -12.6 °F 75% 30.50 in 10.0 mi WNW 5.8 mph - N/A   Clear
7:35 PM -8.0 °F -23.9 °F -14.3 °F 74% 30.51 in 10.0 mi NW 8.1 mph - N/A   Clear
7:55 PM -8.5 °F -23.2 °F -14.3 °F 76% 30.50 in 10.0 mi NW 6.9 mph - N/A   Clear
8:15 PM -10.1 °F -25.1 °F -15.5 °F 77% 30.51 in 10.0 mi NW 6.9 mph - N/A   Clear
8:35 PM -10.7 °F -25.8 °F -16.2 °F 76% 30.51 in 10.0 mi NW 6.9 mph - N/A   Clear
8:55 PM -11.0 °F -28.8 °F -16.2 °F 78% 30.51 in 10.0 mi NNW 9.2 mph - N/A   Clear
9:15 PM -7.4 °F -24.4 °F -12.5 °F 79% 30.51 in 10.0 mi NNW 9.2 mph - N/A   Clear
9:35 PM -7.6 °F -27.5 °F -13.0 °F 77% 30.51 in 10.0 mi NNW 12.7 mph - N/A   Clear
9:55 PM -4.9 °F -23.2 °F -10.3 °F 78% 30.53 in 10.0 mi NNW 11.5 mph - N/A   Clear
10:15 PM -7.6 °F -23.4 °F -12.6 °F 79% 30.52 in 10.0 mi NNW 8.1 mph - N/A   Clear
10:35 PM -8.7 °F -17.8 °F -13.9 °F 78% 30.51 in 10.0 mi NW 3.5 mph - N/A   Clear
10:55 PM -7.1 °F - -11.7 °F 80% 30.51 in 10.0 mi Calm Calm - N/A   Scattered Clouds
11:15 PM -8.7 °F - -13.2 °F 81% 30.52 in 10.0 mi Calm Calm - N/A   Clear
11:35 PM -15.5 °F -30.0 °F -20.2 °F 79% 30.53 in 10.0 mi West 5.8 mph - N/A   Clear
11:44 PM -14.8 °F -30.8 °F -20.2 °F 77% 30.53 in 10.0 mi West 6.9 mph - N/A   Clear
11:55 PM -13.0 °F -27.0 °F -17.0 °F 82% 30.52 in 10.0 mi WNW 5.8 mph - N/A   Clear